Flag for Mexico Weather past 2 weeks in Mexicali, Baja California, Mexico

Now
82 °F

Clear.


Feels Like: 82 °F
Forecast: 74 / 98 °F
Wind: 16 mph from West

Location: Imperial County Airport

Current Time: Sep 19, 2014 at 1:13:12 AM

Latest Report: Sep 19, 2014 at 12:53 AM


Visibility: 10 mi

Pressure: 29.69 "Hg

Humidity: 46%

Dew point: 59 °F

Location of MexicaliLocation

Historic Weather in Mexicali — Graph

°F

Mexicali temperature yesterday

Maximum temperature yesterday: 105 °F (at 2:53 PM)
Minimum temperature yesterday: 83 °F (at 5:53 AM)
Average temperature yesterday: 92 °F

Past Weeks' High & Low Weather Summary

 TemperatureHumidityPressure
High108 °F (Sep 12, 3:53 PM)82% (Sep 6, 3:53 AM)29.88 "Hg (Sep 6, 3:53 AM)
Low77 °F (Sep 12, 5:53 AM)9% (Sep 4, 4:53 PM)29.53 "Hg (Sep 4, 5:53 PM)
Average92 °F42%29.72 "Hg
* Reported Sep 3 11:53 PM — Sep 18 11:53 PM, Mexicali, Weather by CustomWeather, © 2014

Note: Actual official high and low records may vary slightly from our data, if they occured in-between our weather recording intervals... More about our weather records

Advertising

Mexicali weather history for previous 24 hours

 ConditionsComfort  
Time TempWeatherWind HumidityBarometerVisibility
11:53 PM
Sep 18
83 °FClear.15 mph43%29.69 "Hg10 mi
10:53 PM83 °FClear.18 mph44%29.68 "Hg10 mi
9:53 PM84 °FClear.16 mph41%29.67 "Hg10 mi
8:53 PM85 °FClear.21 mph39%29.66 "Hg10 mi
7:53 PM88 °FClear.16 mph31%29.65 "Hg10 mi
6:53 PM92 °FSunny.13 mph24%29.63 "Hg10 mi
5:53 PM96 °FSunny.18 mph21%29.61 "Hg10 mi
4:53 PM101 °FSunny.23 mph19%29.61 "Hg10 mi
3:53 PM104 °FSunny.21 mph12%29.60 "Hg10 mi
2:53 PM105 °FSunny.7 mph10%29.61 "Hg10 mi
1:53 PM104 °FPassing clouds.6 mph11%29.63 "Hg10 mi
12:53 PM103 °FSunny.5 mph12%29.66 "Hg10 mi
11:53 AM102 °FSunny.12 mph12%29.68 "Hg10 mi
10:53 AM97 °FSunny.No wind26%29.70 "Hg10 mi
9:53 AM96 °FSunny.7 mph24%29.71 "Hg10 mi
8:53 AM91 °FSunny.7 mph33%29.70 "Hg10 mi
7:53 AM88 °FSunny.5 mph36%29.70 "Hg10 mi
6:53 AM85 °FClear.8 mph39%29.68 "Hg10 mi
5:53 AM83 °FClear.8 mph46%29.67 "Hg10 mi
4:53 AM86 °FClear.3 mph46%29.66 "Hg10 mi
3:53 AM87 °FClear.5 mph48%29.65 "Hg10 mi
2:53 AM88 °FClear.7 mph46%29.66 "Hg10 mi
1:53 AM90 °FClear.5 mph42%29.67 "Hg10 mi
Weather by CustomWeather, © 2014

See weather overviewHow to use our weather pages